SUI1 LIMF-LPPR

Flight info

Callsign SUI1
Flight time N/A
Altitude 25000
Route IXUS1X IXUSA RONOP GIGUS BALSI GIPNO RUSIT ESIDA LERGA MINSO NARAK AGN LATEK PPN MIRPO DGO NEA ZMR L155 ADORO ELGIX
Aircraft DARK/J-V/N

Departure

Time 2026-05-08 19:41
Airport Turin Airport (LIMF)

Arrival

Time N/A
Airport Francisco de Sá Carneiro Airport (LPPR)
Time Latitude Longitude Altitude Speed Heading
2026-05-08 19:33 45.19493 7.64601 951 ft 0 kts 92°
2026-05-08 19:38 45.19492 7.64624 951 ft 7 kts 98°
2026-05-08 19:38 45.19471 7.64667 951 ft 9 kts 145°
2026-05-08 19:38 45.19387 7.64675 952 ft 11 kts 180°
2026-05-08 19:38 45.19259 7.64669 950 ft 26 kts 181°
2026-05-08 19:39 45.19086 7.64660 942 ft 23 kts 183°
2026-05-08 19:39 45.18924 7.64648 937 ft 25 kts 182°
2026-05-08 19:39 45.18814 7.64647 930 ft 0 kts 177°
2026-05-08 19:40 45.18719 7.64634 929 ft 17 kts 183°
2026-05-08 19:40 45.18640 7.64679 927 ft 18 kts 145°
2026-05-08 19:40 45.18625 7.64827 924 ft 16 kts 49°
2026-05-08 19:41 45.18736 7.64879 929 ft 34 kts
2026-05-08 19:41 45.19761 7.64918 1142 ft 276 kts
2026-05-08 19:41 45.22327 7.65156 2660 ft 447 kts
2026-05-08 19:41 45.25766 7.65471 3389 ft 528 kts
2026-05-08 19:42 45.29250 7.66654 4457 ft 515 kts 44°
2026-05-08 19:42 45.29813 7.71259 6928 ft 502 kts 111°
2026-05-08 19:42 45.28076 7.75561 9069 ft 509 kts 123°
2026-05-08 19:42 45.26119 7.79874 10479 ft 529 kts 123°
2026-05-08 19:43 45.24094 7.84299 11410 ft 539 kts 123°
2026-05-08 19:43 45.21524 7.88172 11679 ft 547 kts 151°
2026-05-08 19:43 45.17914 7.88221 11176 ft 536 kts 212°
2026-05-08 19:43 45.15960 7.83953 11306 ft 539 kts 268°
2026-05-08 19:44 45.17139 7.79074 12215 ft 514 kts 310°
2026-05-08 19:44 45.19285 7.75226 14609 ft 499 kts 300°
2026-05-08 19:44 45.20437 7.70588 16370 ft 504 kts 278°
2026-05-08 19:44 45.20346 7.65708 18077 ft 502 kts 261°
2026-05-08 19:45 45.19713 7.60871 19932 ft 505 kts 259°
2026-05-08 19:45 45.18933 7.55615 22136 ft 573 kts 258°
2026-05-08 19:45 45.18079 7.49993 24061 ft 586 kts 258°
2026-05-08 19:45 45.17229 7.44410 25945 ft 570 kts 258°
2026-05-08 19:46 45.16401 7.38993 28387 ft 555 kts 258°
2026-05-08 19:46 45.15672 7.33688 30820 ft 542 kts 262°
2026-05-08 19:46 45.14916 7.23231 34650 ft 524 kts 264°
2026-05-08 19:47 45.14591 7.18133 36740 ft 516 kts 264°
2026-05-08 19:47 45.14475 7.13066 39015 ft 514 kts 274°
2026-05-08 19:47 45.15174 7.08131 41177 ft 511 kts 288°
2026-05-08 19:47 45.16494 7.03302 42209 ft 541 kts 290°
2026-05-08 19:48 45.17839 6.98342 41420 ft 546 kts 289°
2026-05-08 19:48 45.19178 6.93335 41039 ft 539 kts 289°
2026-05-08 19:48 45.20502 6.88378 41158 ft 537 kts 289°
2026-05-08 19:48 45.21824 6.83427 41395 ft 538 kts 289°
2026-05-08 19:49 45.24483 6.73467 41463 ft 540 kts 289°
2026-05-08 19:49 45.27140 6.63510 41604 ft 539 kts 289°
2026-05-08 19:50 45.29797 6.53553 41758 ft 539 kts 289°
2026-05-08 19:50 45.31124 6.48579 42053 ft 539 kts 289°
2026-05-08 19:50 45.32457 6.43581 42352 ft 540 kts 289°
2026-05-08 19:51 45.33341 6.40267 42496 ft 540 kts 289°
2026-05-08 19:51 45.34672 6.35271 42672 ft 541 kts 289°
2026-05-08 19:51 45.36437 6.28648 43044 ft 540 kts 289°
2026-05-08 19:51 45.37766 6.23659 43619 ft 539 kts 289°
2026-05-08 19:52 45.38668 6.20274 44091 ft 540 kts 289°
2026-05-08 19:52 45.39999 6.15272 44660 ft 542 kts 289°
2026-05-08 19:52 45.41317 6.10310 45123 ft 542 kts 289°
2026-05-08 19:52 45.42271 6.05167 45616 ft 535 kts 274°
2026-05-08 19:53 45.42147 5.99915 46479 ft 530 kts 257°
2026-05-08 19:53 45.40999 5.94935 47372 ft 535 kts 247°
2026-05-08 19:53 45.39453 5.90060 47123 ft 542 kts 246°
2026-05-08 19:53 45.37863 5.85182 46103 ft 542 kts 244°
2026-05-08 19:54 45.36156 5.80390 45370 ft 543 kts 242°
2026-05-08 19:54 45.34352 5.75747 44530 ft 544 kts 242°
2026-05-08 19:54 45.32512 5.71051 43595 ft 540 kts 242°
2026-05-08 19:54 45.30712 5.66424 43090 ft 532 kts 242°
2026-05-08 19:55 45.28922 5.61822 42382 ft 532 kts 242°
2026-05-08 19:55 45.27132 5.57222 41498 ft 530 kts 242°
2026-05-08 19:55 45.25352 5.52648 40882 ft 528 kts 242°
2026-05-08 19:55 45.23567 5.48061 40288 ft 539 kts 242°
2026-05-08 19:56 45.21691 5.43228 38858 ft 598 kts 242°
2026-05-08 19:56 45.19517 5.37622 37734 ft 669 kts 241°
2026-05-08 19:56 45.17323 5.32016 42465 ft 639 kts 241°
2026-05-08 19:56 45.15204 5.26608 47294 ft 612 kts 242°
2026-05-08 19:57 45.13212 5.21536 51558 ft 562 kts 241°
2026-05-08 19:57 45.11424 5.16997 55275 ft 489 kts 241°
2026-05-08 19:57 45.09869 5.13068 58721 ft 426 kts 241°
2026-05-08 19:57 45.08531 5.09704 61552 ft 357 kts 241°
2026-05-08 19:58 45.06175 5.03891 58436 ft 307 kts 241°
2026-05-08 19:58 45.05176 5.01443 51267 ft 306 kts 238°
2026-05-08 19:58 45.03799 4.98350 43398 ft 426 kts 238°
2026-05-08 19:59 45.02146 4.94671 35776 ft 453 kts 237°
2026-05-08 19:59 45.00427 4.90822 28829 ft 464 kts 237°
2026-05-08 19:59 44.98687 4.86947 23378 ft 474 kts 236°
2026-05-08 19:59 44.96912 4.83006 21729 ft 504 kts 237°
2026-05-08 20:00 44.94825 4.78384 20159 ft 597 kts 237°
2026-05-08 20:00 44.92531 4.73290 19427 ft 622 kts 237°
2026-05-08 20:00 44.90175 4.68052 19872 ft 651 kts 237°
2026-05-08 20:00 44.87625 4.62425 19641 ft 711 kts 236°
2026-05-08 20:01 44.84846 4.56341 20203 ft 765 kts 236°
2026-05-08 20:01 44.81846 4.49811 21390 ft 824 kts 236°
2026-05-08 20:01 44.78614 4.42788 22705 ft 889 kts 236°
2026-05-08 20:01 44.75103 4.35178 23920 ft 962 kts 236°
2026-05-08 20:02 44.71302 4.26958 25233 ft 1045 kts 236°
2026-05-08 20:02 44.67204 4.18114 27405 ft 1147 kts 236°
2026-05-08 20:02 44.62517 4.08022 31186 ft 1301 kts 236°
2026-05-08 20:02 44.57193 3.96607 35986 ft 1558 kts 236°
2026-05-08 20:03 44.50335 3.81993 41872 ft 2031 kts 237°
2026-05-08 20:03 44.41429 3.63037 48812 ft 2426 kts 237°
2026-05-08 20:03 44.32382 3.43808 52596 ft 2326 kts 237°
2026-05-08 20:03 44.23621 3.25245 46648 ft 2240 kts 237°
2026-05-08 20:04 44.13799 3.05961 39793 ft 2807 kts 234°
2026-05-08 20:04 44.09940 2.98648 38660 ft 0 kts 233°